Location: Bondula
(6.3703°N, 10.6756°W)
Time: 00:18:07
(UTC+00:00)

Aurora 2 Rocket - Pass Details

Date: 22 October 2019
Orbit: 390 x 1747 km, 25.0° (Epoch: 20 November)

Event Time Altitude Azimuth Distance (km) Brightness Sun altitude
Exits shadow 05:21:39 26° 284° (WNW) 1,984 4.5 -17.3°
Maximum altitude 05:24:57 39° 333° (NNW) 1,361 4.0 -16.4°
Drops below altitude 10° 05:30:01 10° 42° (NE) 2,245 5.9 -15.2°
Sets 05:32:12 0° 51° (NE) 2,988 6.7 -14.7°
